Location: Unspecified
(35.6961°N, 0.0000°E)
Time: 12:31:34
(UTC+00:00)

Tiros 1 despin weight - Visible Passes

Search period start: 17 October 2019 00:00
Search period end: 27 October 2019 00:00
Orbit: 594 x 643 km, 48.2° (Epoch: 16 October)

Date Brightness Start Highest point End Pass type
(mag) Time Alt. Az. Time Alt. Az. Time Alt. Az.
17 Oct ? 02:58:50 11° NE 02:58:50 11° NE 02:58:57 10° NE visible
17 Oct ? 04:35:54 15° NNW 04:37:28 17° N 04:40:37 10° NE visible
18 Oct ? 03:14:46 13° NNE 03:14:46 13° NNE 03:15:26 10° NE visible
18 Oct ? 04:51:49 12° NW 04:54:36 18° N 04:57:47 10° NE visible
19 Oct ? 03:30:41 15° NNE 03:30:41 15° NNE 03:32:05 10° NE visible
19 Oct ? 05:08:08 10° NW 05:11:40 21° NNE 05:15:13 10° ENE visible
20 Oct ? 03:46:38 17° NNE 03:46:38 17° NNE 03:49:02 10° NE visible
20 Oct ? 05:24:39 10° NW 05:28:41 27° NNE 05:32:41 10° E visible
21 Oct ? 04:02:37 18° N 04:03:01 19° N 04:06:20 10° NE visible
21 Oct ? 05:41:06 10° NW 05:45:33 41° NNE 05:49:58 10° E visible
22 Oct ? 04:18:38 20° N 04:20:04 23° NNE 04:23:49 10° ENE visible
23 Oct ? 04:34:42 21° NNW 04:37:01 32° NNE 04:41:13 10° E visible
24 Oct ? 03:13:46 14° NE 03:13:46 14° NE 03:14:55 10° ENE visible
24 Oct ? 04:50:51 21° NW 04:53:49 51° NNE 04:58:23 10° ESE visible
25 Oct ? 03:29:59 22° NE 03:29:59 22° NE 03:32:23 10° ENE visible
25 Oct ? 05:07:04 19° NW 05:10:28 87° SW 05:15:09 10° SE visible
26 Oct ? 03:46:18 34° NE 03:46:18 34° NE 03:49:43 10° E visible
26 Oct ? 05:23:23 15° WNW 05:26:58 43° SW 05:31:22 10° SSE visible
